Regional Weather Roundup
Issued by NWS

Home | Current Version | Previous Version | Graphics & Text | Print | Product List | Glossary On
Versions: 1 2 3 4 5 6 7 8 9 10 11 12 13 14 15 16 17 18 19 20 21 22 23 24 25 26 27 28 29 30 31 32 33 34 35 36 37 38 39 40 41 42 43 44 45 46 47 48 49 50
000
ASUS43 KIND 140309
RWRIN

WEATHER ROUNDUP FOR INDIANA
NATIONAL WEATHER SERVICE INDIANAPOLIS IN
1100 PM EDT SUN JUL 13 2014

NOTE: "FAIR" INDICATES FEW OR NO CLOUDS BELOW 12,000 FEET WITH NO
SIGNIFICANT WEATHER AND/OR OBSTRUCTIONS TO VISIBILITY.

* - STATION DOES NOT REPORT WEATHER SUCH AS PRECIPITATION OR FOG.

+ - STATION NOT QUALITY CONTROLLED BY THE NATIONAL WEATHER SERVICE.
    USE DATA WITH CAUTION...ESPECIALLY DEWPOINT AND RELATIVE
    HUMIDITY OBSERVATIONS.

INZ001>003-010>013-019-020-140400-
NORTHWEST INDIANA

CITY           SKY/WX    TMP DP  RH WIND       PRES   REMARKS
GARY /AIRPORT/ CLOUDY    79  63  58 SW3       29.90S
KNOX *+        PTCLDY    70  65  84 SW5       29.91R
LA PORTE +     PTCLDY    73  65  75 SW7       29.91S
MICHIGAN CITY+ MOCLDY    73  63  68 S5        29.90S
MONTICELLO +   CLEAR     69  67  94 CALM      29.93R
RENSSELAER +   CLEAR     70  68  94 SW5       29.93R
VALPARAISO     MOCLDY    74  66  76 SW7       29.91S

$$

LMZ046-743>745-140400-
SOUTHERN LAKE MICHIGAN

STATION/POSITION TIME  TEMP WIND        PRES
                       AIR  DIR/SP/G
                 (UTC) (F)  (DEG/KT/KT) (MB)
MICHIGAN CITY    0300   76  190/ 11/ 14   N/A

$$

INZ004-005-014>016-021>024-140400-
NORTH CENTRAL INDIANA

CITY           SKY/WX    TMP DP  RH WIND       PRES   REMARKS
GOSHEN         CLEAR     70  63  78 S6        29.92R
LOGANSPORT +   CLEAR     68  63  83 CALM      29.94R
PERU/GRISSOM   CLEAR     68  68 100 W3        29.93R
ROCHESTER +    CLEAR     73  66  78 SW5       29.93S
SOUTH BEND     CLOUDY    75  64  68 SW7       29.91R
WARSAW +       CLEAR     72  64  78 CALM      29.92S

$$

INZ006>009-017-018-025>027-140400-
NORTHEAST INDIANA

CITY           SKY/WX    TMP DP  RH WIND       PRES   REMARKS
ANGOLA *+      CLEAR     66  55  68 CALM      29.92S
AUBURN +       CLEAR     68  63  83 CALM      29.93S
FORT WAYNE     PTCLDY    70  65  84 CALM      29.93S
HUNTINGTON +   CLEAR     70  67  91 CALM      29.92S

$$

INZ028-029-035-036-043>045-051>053-140400-
WEST CENTRAL INDIANA

CITY           SKY/WX    TMP DP  RH WIND       PRES   REMARKS
GREENCASTLE +  MOCLDY    72  70  94 CALM      29.95S
LAFAYETTE      CLEAR     69  67  93 CALM      29.93R
TERRE HAUTE    MOCLDY    75  71  87 CALM      29.94R

$$

INZ030>032-037>040-046>048-054>057-064-065-140400-
CENTRAL INDIANA

CITY           SKY/WX    TMP DP  RH WIND       PRES   REMARKS
CP ATTERBURY + PTCLDY    75  72  88 CALM      29.95F
GREENWOOD *+   PTCLDY    77  73  88 CALM      29.96
INDIANAPOLIS   MOCLDY    74  69  85 SW5       29.94R
-EAGLE CREEK   CLEAR     75  70  84 CALM      29.94R
KOKOMO *+      CLEAR     70  64  83 SW3       29.93S
MARION +       CLEAR     68  66  94 CALM      29.94S
MT COMFORT *+  CLEAR     70 N/A N/A CALM      29.96R
SHELBYVILLE    CLOUDY    77  71  82 S7        29.95R
ZIONSVILLE +   CLEAR     71  67  87 SW3       29.96R

$$

INZ033-034-041-042-049-050-058-059-140400-
EAST CENTRAL INDIANA

CITY           SKY/WX    TMP DP  RH WIND       PRES   REMARKS
MUNCIE         CLEAR     72  67  84 CALM      29.95R

$$

INZ060-061-067>069-081>083-085>088-140400-
SOUTHWEST INDIANA

CITY           SKY/WX    TMP DP  RH WIND       PRES   REMARKS
EVANSVILLE     LGT RAIN  76  70  82 S9        29.96R
HUNTINGBURG *+ MOCLDY    77  70  78 E7        29.95R
WASHINGTON +   MOCLDY    73  73 100 CALM      29.93S

$$

INZ062-063-066-070>080-084-089>092-140400-
SOUTH CENTRAL AND SOUTHEAST INDIANA

CITY           SKY/WX    TMP DP  RH WIND       PRES   REMARKS
BLOOMINGTON    PTCLDY    72  69  90 SW6       29.96R

$$




USA.gov is the U.S. government's official web portal to all federal, state and local government web resources and services.